Regional Weather Roundup
Issued by NWS Kansas City/Pleasant Hill, MO

Home | Current Version | Previous Version | Text Only | Print | Product List | Glossary On
Versions: 1 2 3 4 5 6 7 8 9 10 11 12 13 14 15 16 17 18 19 20 21 22 23 24 25 26 27 28 29 30 31 32 33 34 35 36 37 38 39 40 41 42 43 44 45 46 47 48 49 50
000
ASUS43 KEAX 280610
RWREAX

WEATHER ROUNDUP FOR EASTERN KANSAS AND NORTHWEST MISSOURI
NATIONAL WEATHER SERVICE KANSAS CITY/PLEASANT HILL MO
100 AM CDT SUN AUG 28 2016

KSZ040-057-103>105-MOZ028-029-037-043-280700-
...KANSAS CITY METROPOLITAN AREA...

CITY           SKY/WX    TMP DP  RH WIND       PRES   REMARKS
K.C. INTL      PTCLDY    74  68  81 SE6       30.08R
6HR MIN TEMP:  72; 6HR MAX TEMP:  82; 6HR PCP:  0.05;

K.C. DOWNTOWN  CLEAR     74  70  87 NE5       30.06R
6HR MIN TEMP:  73; 6HR MAX TEMP:  80; 6HR PCP:  0.08;

LEES SUMMIT    CLEAR     77  71  82 S8        30.09R
6HR MIN TEMP:  76; 6HR MAX TEMP:  84;

OLATHE - IXD   CLEAR     76  71  85 SE8       30.08R
6HR MIN TEMP:  74; 6HR MAX TEMP:  82;

OLATHE - OJC   CLEAR     74  71  91 SE5       30.08S
6HR MIN TEMP:  73; 6HR MAX TEMP:  81;

LAWRENCE       CLEAR     69  68  96 NW3       30.06R

$$

MOZ001>008-011>017-020>025-030>033-038>040-044>046-053-054-280700-
...NORTHERN AND CENTRAL MISSOURI...

CITY           SKY/WX    TMP DP  RH WIND       PRES   REMARKS
ST. JOSEPH     CLEAR     73  69  87 CALM      30.07S
6HR MIN TEMP:  72; 6HR MAX TEMP:  85;

MOSBY          CLEAR     70  70 100 CALM      30.07S
WHITEMAN AFB   CLEAR     74  74 100 S3        30.08R
6HR MIN TEMP:  74; 6HR MAX TEMP:  84;

CLINTON        CLEAR     72  72 100 CALM      30.09R FOG
SEDALIA        CLEAR     74  70  87 SE5       30.10S
6HR MIN TEMP:  74; 6HR MAX TEMP:  86;

WARSAW         NOT AVBL
CHILLICOTHE    NOT AVBL
KIRKSVILLE     CLEAR     72  70  93 CALM      30.10S
6HR MIN TEMP:  71; 6HR MAX TEMP:  80; 6HR PCP: TRACE;


$$

MOZ041-047>049-056>058-063>065-088>090-097-280700-
...EASTERN AND SOUTHERN MISSOURI...

CITY           SKY/WX    TMP DP  RH WIND       PRES   REMARKS
ST. LOUIS INTL MOCLDY    77  71  82 E6        30.10F
6HR MIN TEMP:  77; 6HR MAX TEMP:  82;

SPIRIT OF STL  MOCLDY    75  74  96 CALM      30.08S
COLUMBIA       CLOUDY    74  73  97 S3        30.10S
JEFFERSON CITY CLOUDY    75  72  90 CALM      30.08S
ROLLA          PTCLDY    74  72  93 SE6       30.11S
OSAGE BEACH    CLEAR     72  71  97 S3        30.11S
SPRINGFIELD    CLEAR     75  69  81 S7        30.10S
BRANSON        CLEAR     72  72 100 CALM      30.12S
JOPLIN         CLEAR     74  71  91 SE3       30.09R
WEST PLAINS    CLEAR     70  67  90 CALM      30.14S FOG

$$

IAZ060-094-KSZ022-034>040-054-083-096-NEZ052-066-093-280700-
...KANSAS...SOUTHEAST NEBRASKA AND IOWA...

CITY           SKY/WX    TMP DP  RH WIND       PRES   REMARKS
TOPEKA         CLEAR     71  69  93 CALM      30.06R
6HR MIN TEMP:  70; 6HR MAX TEMP:  86;

MANHATTAN      MOCLDY    75  70  84 CALM      30.04F
EMPORIA        CLEAR     71  68  90 E3        30.06F
CHANUTE        PTCLDY    75  71  87 S5        30.06S
WICHITA        PTCLDY    77  68  73 SE9       30.04S
OMAHA          PTCLDY    72  66  81 S3        30.06S
LINCOLN        PTCLDY    68  64  87 CALM      30.07S
FALLS CITY     CLEAR     69  67  93 CALM      30.05S
LAMONI         CLEAR     70  69  97 NE5       30.09S
DES MOINES     FAIR      70  68  93 CALM      30.09R

$$




USA.gov is the U.S. government's official web portal to all federal, state and local government web resources and services.